Powrót do katalogu

CZ-6A DEB

AktywnyPO
NORAD 61094·DEBRIS·🇨🇳 China

Wystrzelony Aug 6, 2024 z Taiyuan Satellite Launch Center

Loading…

Następne Przeloty (najbliższe 24 godziny)

TLE

ŚwieżeSource: Space-Track

Epoka: Sep 13, 2026, 11:44 UTC

1 61094U 24140NL  26256.48905408  .00000198  00000-0  90504-4 0  9990
2 61094  89.0045 265.9631 0053616 260.3870  99.1259 14.17159460105635

Śledź CZ-6A DEB w czasie rzeczywistym z AllMySat

Download on the App Store